When you browse on this site, cookies collect data to enhance your experience and personalize the content and advertising you see.
Visit our Privacy Policy to learn more. By continuing to use the site, you agree to this use of cookies and data.
  • In Hungary
  • List of Countries
  • For 7 days
  • Water Temperature
  • Weather Map
  • News
  • Weather Widgets
  • user-avatar
    Login

    Hourly Weather Kobylany

    Today, 23 February, Sunday

    Time Temperature Precipitation Wind Pressure Humidity
    00:00 +6°C° 0 mm 8 mps 744 mmHg 66%
    01:00 +6°C° 0 mm 8 mps 744 mmHg 71%
    02:00 +5°C° 0.3 mm 7 mps 743 mmHg 74%
    03:00 +5°C° 0.3 mm 7 mps 743 mmHg 77%
    04:00 +4°C° 0.3 mm 7 mps 743 mmHg 79%
    05:00 +4°C° 1.1 mm 6 mps 743 mmHg 83%
    06:00 +3°C° 1.1 mm 5 mps 743 mmHg 86%
    07:00 +3°C° 0 mm 5 mps 743 mmHg 90%
    08:00 +3°C° 0.3 mm 6 mps 743 mmHg 85%
    09:00 +4°C° 0.3 mm 7 mps 743 mmHg 80%
    10:00 +4°C° 0.3 mm 8 mps 743 mmHg 74%
    11:00 +4°C° 0.1 mm 8 mps 743 mmHg 75%
    12:00 +4°C° 0.1 mm 7 mps 742 mmHg 76%
    13:00 +4°C° 0.1 mm 7 mps 742 mmHg 77%
    14:00 +3°C° 0.5 mm 6 mps 740 mmHg 82%
    15:00 +4°C° 0.5 mm 4 mps 739 mmHg 87%
    16:00 +3°C° 0.5 mm 3 mps 738 mmHg 92%
    17:00 +3°C° 1.5 mm 3 mps 736 mmHg 94%
    18:00 +4°C° 1.5 mm 3 mps 735 mmHg 95%
    19:00 +4°C° 1.5 mm 3 mps 734 mmHg 96%
    20:00 +4°C° 2.9 mm 4 mps 732 mmHg 95%
    21:00 +5°C° 2.9 mm 4 mps 731 mmHg 94%
    22:00 +6°C° 2.9 mm 4 mps 729 mmHg 93%
    23:00 +4°C° 0.8 mm 7 mps 730 mmHg 91%

    Tomorrow, 24 February, Monday

    Time Temperature Precipitation Wind Pressure Humidity
    00:00 +3°C° 0.8 mm 9 mps 731 mmHg 89%
    01:00 +3°C° 0.8 mm 11 mps 732 mmHg 86%
    02:00 +2°C° 0.7 mm 11 mps 734 mmHg 81%
    03:00 +1°C° 0.7 mm 11 mps 735 mmHg 76%
    04:00 +1°C° 0.7 mm 11 mps 737 mmHg 70%
    05:00 +1°C° 0 mm 11 mps 738 mmHg 72%
    06:00 -1°C° 0 mm 11 mps 740 mmHg 73%
    07:00 0°C° 0 mm 10 mps 741 mmHg 74%
    08:00 0°C° 0 mm 10 mps 742 mmHg 77%
    09:00 +1°C° 0 mm 10 mps 743 mmHg 80%
    10:00 +1°C° 0 mm 10 mps 744 mmHg 82%
    11:00 +1°C° 0.1 mm 9 mps 744 mmHg 78%
    12:00 +1°C° 0.1 mm 8 mps 744 mmHg 74%
    13:00 +2°C° 0.1 mm 8 mps 745 mmHg 70%
    14:00 +3°C° 0 mm 7 mps 745 mmHg 69%
    15:00 +3°C° 0 mm 6 mps 745 mmHg 69%
    16:00 +3°C° 0 mm 6 mps 745 mmHg 68%
    17:00 +2°C° 0 mm 5 mps 745 mmHg 71%
    18:00 +3°C° 0 mm 4 mps 745 mmHg 75%
    19:00 +1°C° 0 mm 4 mps 745 mmHg 78%
    20:00 +1°C° 0 mm 4 mps 744 mmHg 80%
    21:00 +2°C° 0 mm 3 mps 744 mmHg 81%
    22:00 +1°C° 0 mm 3 mps 743 mmHg 82%
    23:00 0°C° 0.1 mm 4 mps 742 mmHg 83%

    Day after tomorrow, 25 February, Tuesday

    Time Temperature Precipitation Wind Pressure Humidity
    00:00 0°C° 0.1 mm 5 mps 741 mmHg 85%
    01:00 0°C° 0.1 mm 5 mps 740 mmHg 86%
    02:00 +1°C° 0.7 mm 6 mps 739 mmHg 84%
    03:00 +1°C° 0.7 mm 6 mps 737 mmHg 82%
    04:00 +2°C° 0.7 mm 6 mps 736 mmHg 79%
    05:00 +3°C° 0.5 mm 7 mps 735 mmHg 81%
    06:00 +4°C° 0.5 mm 7 mps 735 mmHg 83%
    07:00 +5°C° 0.5 mm 8 mps 734 mmHg 84%
    08:00 +5°C° 0.1 mm 7 mps 734 mmHg 84%
    09:00 +6°C° 0.1 mm 7 mps 734 mmHg 83%
    10:00 +7°C° 0.1 mm 6 mps 734 mmHg 83%
    11:00 +8°C° 0.1 mm 6 mps 734 mmHg 79%
    12:00 +8°C° 0.1 mm 7 mps 734 mmHg 76%
    13:00 +9°C° 0.1 mm 7 mps 733 mmHg 72%
    14:00 +9°C° 0.1 mm 6 mps 733 mmHg 74%
    15:00 +9°C° 0.1 mm 6 mps 732 mmHg 76%
    16:00 +8°C° 0.1 mm 5 mps 732 mmHg 78%
    17:00 +8°C° 0.2 mm 6 mps 732 mmHg 78%
    18:00 +8°C° 0.2 mm 6 mps 732 mmHg 78%
    19:00 +6°C° 0.2 mm 7 mps 731 mmHg 78%
    20:00 +5°C° 0.9 mm 6 mps 732 mmHg 77%
    21:00 +5°C° 0.9 mm 6 mps 732 mmHg 76%
    22:00 +5°C° 0.9 mm 5 mps 732 mmHg 75%
    23:00 +3°C° 0 mm 5 mps 732 mmHg 74%

    26 February, Wednesday

    Time Temperature Precipitation Wind Pressure Humidity
    00:00 +4°C° 0 mm 4 mps 732 mmHg 73%
    01:00 +3°C° 0 mm 4 mps 732 mmHg 72%
    02:00 +3°C° 0 mm 4 mps 732 mmHg 72%
    03:00 +1°C° 0 mm 4 mps 732 mmHg 72%
    04:00 +1°C° 0 mm 4 mps 731 mmHg 73%
    05:00 +1°C° 0 mm 4 mps 731 mmHg 74%
    06:00 +1°C° 0 mm 4 mps 731 mmHg 75%
    07:00 0°C° 0 mm 4 mps 731 mmHg 76%
    08:00 +1°C° 0 mm 4 mps 731 mmHg 70%
    09:00 +3°C° 0 mm 5 mps 731 mmHg 64%
    10:00 +4°C° 0 mm 6 mps 731 mmHg 57%
    11:00 +5°C° 0 mm 5 mps 731 mmHg 54%
    12:00 +6°C° 0 mm 5 mps 730 mmHg 51%
    13:00 +7°C° 0 mm 5 mps 730 mmHg 48%
    14:00 +7°C° 0 mm 4 mps 730 mmHg 51%
    15:00 +7°C° 0 mm 4 mps 730 mmHg 54%
    16:00 +7°C° 0 mm 4 mps 729 mmHg 56%
    17:00 +6°C° 0.1 mm 4 mps 730 mmHg 63%
    18:00 +4°C° 0.1 mm 4 mps 730 mmHg 70%
    19:00 +3°C° 0.1 mm 4 mps 731 mmHg 76%
    20:00 +3°C° 0 mm 3 mps 731 mmHg 75%
    21:00 +2°C° 0 mm 3 mps 731 mmHg 74%
    22:00 +3°C° 0 mm 2 mps 732 mmHg 73%
    23:00 +2°C° 0 mm 2 mps 732 mmHg 73%

    27 February, Thursday

    Time Temperature Precipitation Wind Pressure Humidity
    00:00 +2°C° 0 mm 2 mps 732 mmHg 73%
    01:00 +2°C° 0 mm 2 mps 733 mmHg 73%
    02:00 +1°C° 0 mm 3 mps 733 mmHg 77%
    03:00 0°C° 0 mm 3 mps 733 mmHg 81%
    04:00 -1°C° 0 mm 4 mps 733 mmHg 85%
    05:00 -1°C° 0.2 mm 4 mps 734 mmHg 85%
    06:00 -1°C° 0.2 mm 3 mps 734 mmHg 85%
    07:00 -1°C° 0.2 mm 3 mps 734 mmHg 84%
    08:00 -1°C° 0 mm 4 mps 734 mmHg 80%
    09:00 0°C° 0 mm 4 mps 735 mmHg 76%
    10:00 +1°C° 0 mm 5 mps 735 mmHg 71%
    11:00 +1°C° 0.1 mm 5 mps 735 mmHg 68%
    12:00 +2°C° 0.1 mm 5 mps 735 mmHg 65%
    13:00 +2°C° 0.1 mm 6 mps 735 mmHg 62%
    14:00 +2°C° 0.1 mm 5 mps 736 mmHg 63%
    15:00 +1°C° 0.1 mm 5 mps 736 mmHg 64%
    16:00 +1°C° 0.1 mm 5 mps 736 mmHg 65%
    17:00 0°C° 0 mm 4 mps 736 mmHg 69%
    18:00 0°C° 0 mm 3 mps 736 mmHg 74%
    19:00 +1°C° 0 mm 2 mps 737 mmHg 79%
    20:00 -1°C° 0 mm 2 mps 737 mmHg 81%
    21:00 -1°C° 0 mm 2 mps 737 mmHg 82%
    22:00 -1°C° 0 mm 2 mps 737 mmHg 84%
    23:00 -1°C° 0 mm 2 mps 736 mmHg 84%

    28 February, Friday

    Time Temperature Precipitation Wind Pressure Humidity
    00:00 -1°C° 0 mm 2 mps 736 mmHg 84%
    01:00 -1°C° 0 mm 2 mps 735 mmHg 84%
    02:00 -1°C° 0 mm 3 mps 734 mmHg 82%
    03:00 -1°C° 0 mm 3 mps 734 mmHg 79%
    04:00 -2°C° 0 mm 4 mps 733 mmHg 77%
    05:00 -2°C° 0 mm 5 mps 732 mmHg 75%
    06:00 -2°C° 0 mm 6 mps 731 mmHg 74%
    07:00 -2°C° 0 mm 6 mps 730 mmHg 73%
    08:00 -2°C° 0.6 mm 7 mps 730 mmHg 76%
    09:00 -1°C° 0.6 mm 8 mps 729 mmHg 78%
    10:00 0°C° 0.6 mm 8 mps 729 mmHg 81%
    11:00 -1°C° 0.3 mm 9 mps 729 mmHg 83%
    12:00 -2°C° 0.3 mm 10 mps 729 mmHg 85%
    13:00 -2°C° 0.3 mm 11 mps 729 mmHg 87%
    14:00 -2°C° 0.4 mm 11 mps 730 mmHg 89%
    15:00 -3°C° 0.4 mm 10 mps 731 mmHg 91%
    16:00 -3°C° 0.4 mm 10 mps 732 mmHg 94%
    17:00 -3°C° 0.2 mm 10 mps 733 mmHg 92%
    18:00 -3°C° 0.2 mm 10 mps 734 mmHg 91%
    19:00 -3°C° 0.2 mm 10 mps 736 mmHg 90%
    20:00 -4°C° 0 mm 8 mps 736 mmHg 89%
    21:00 -3°C° 0 mm 6 mps 737 mmHg 89%
    22:00 -2°C° 0 mm 5 mps 738 mmHg 88%
    23:00 -3°C° 0 mm 4 mps 738 mmHg 90%
    Show more